Regional Weather Roundup
Issued by NWS

Home | Current Version | Previous Version | Graphics & Text | Print | Product List | Glossary On
Versions: 1 2 3 4 5 6 7 8 9 10 11 12 13 14 15 16 17 18 19 20 21 22 23 24 25 26 27 28 29 30 31 32 33 34 35 36 37 38 39 40 41 42 43 44 45 46 47 48 49 50
000
ASUS45 KCYS 182010
RWRWY

WYOMING REGIONAL WEATHER ROUNDUP
NATIONAL WEATHER SERVICE CHEYENNE WY
200 PM MDT SAT APR 18 2015

NOTE:  "FAIR" INDICATES FEW OR NO CLOUDS BELOW 12,000 FEET
WITH NO SIGNIFICANT WEATHER AND/OR OBSTRUCTIONS TO VISIBILITY.

WYZ001-182100-
YELLOWSTONE NATIONAL PARK

CITY           SKY/WX    TMP DP  RH WIND       PRES   REMARKS
LK YELLOWSTONE   N/A     49  15  25 W10       30.11F
W YELLOWSTONE  NOT AVBL

$$
WYZ002>013-054>058-071-098>099-182100-
NORTHERN WYOMING

CITY           SKY/WX    TMP DP  RH WIND       PRES   REMARKS
JACKSON        SUNNY     59  19  21 N12G21    30.02
CODY           PTSUNNY   57  30  35 N21G26    30.01F
GREYBULL       FAIR      68  26  20 N30G39    29.93R
WORLAND        FAIR      69  26  20 N25G36    29.91F
SHERIDAN       FAIR      62  34  35 NW23G36   29.97R
BUFFALO        FAIR      62  28  27 N32G43    29.95F
GILLETTE       FAIR      57  40  52 N9        29.93F
HULETT         CLOUDY    54  36  50 E8        29.95S
NEWCASTLE      LGT RAIN  46  43  87 W3        29.95S

$$
WYZ014>020-022>026-101>103-182100-
CENTRAL WYOMING

CITY           SKY/WX    TMP DP  RH WIND       PRES   REMARKS
BIG PINEY      FAIR      62  14  15 N22G28    29.99F
PINEDALE       MOCLDY    55  18  22 NE6G17    29.99S
DUBOIS         CLOUDY    54  18  24 E12       29.99F
LANDER         FAIR      61  30  31 N18G29    29.95F
RIVERTON       FAIR      61  27  27 N24G38    29.95F
CASPER         CLOUDY    41  37  86 E15       29.96R
DOUGLAS        RAIN      42  39  89 NE8       29.96R FOG

$$
WYZ021-027>030-104>119-182100-
SOUTHERN WYOMING

CITY           SKY/WX    TMP DP  RH WIND       PRES   REMARKS
EVANSTON       FAIR      59  24  26 N22G29    30.03F
KEMMERER       FAIR      59  18  20 NW21G29   30.01S
FORT BRIDGER   CLOUDY    59  28  31 NW16G22   30.03F
ROCK SPRINGS   FAIR      57  27  31 NE23G30   29.96F
DIXON          RAIN      39  36  89 N8        29.99R WCI  33
RAWLINS        LGT RAIN  39  36  89 NE17      29.97R WCI  30
SARATOGA       SNOW      32  32 100 W3        29.97R VSB 1/4
LARAMIE        FLURRIES  34  31  88 NW5       29.93S WCI  30
CHEYENNE       FAIR      41  35  79 N7        29.91F
TORRINGTON     FAIR      55  44  66 VRB3      29.88F
PINE BLUFFS    CLOUDY    46  34  61 CALM      29.90S

$$


USA.gov is the U.S. government's official web portal to all federal, state and local government web resources and services.